This is the latest recevied weather packets stored in our database for station/object KC9DNQ-3. If no packets are shown the sender has not sent any weather packets the latest 10 day(s).
| Time | Temp. | Humidity | Pressure | Rain* | Wind** | Luminosity | Snow |
|---|---|---|---|---|---|---|---|
| 1777580409 | 15° C | 49% | 1013.3 hPa | 0 mm | - | 267 W/m² | - |
| 1777580110 | 15° C | 49% | 1013.4 hPa | 0 mm | - | 244 W/m² | - |
| 1777579810 | 14.44° C | 49% | 1013.4 hPa | 0 mm | - | 243 W/m² | - |
| 1777579510 | 14.44° C | 48% | 1013.4 hPa | 0 mm | - | 181 W/m² | - |
| 1777579210 | 15° C | 48% | 1013.4 hPa | 0 mm | - | 139 W/m² | - |
| 1777578910 | 15° C | 44% | 1013.3 hPa | 0 mm | - | 111 W/m² | - |
| 1777578610 | 15° C | 43% | 1013.3 hPa | 0 mm | - | 70 W/m² | - |
| 1777578310 | 15.56° C | 43% | 1013.3 hPa | 0 mm | - | 65 W/m² | - |
| 1777578010 | 15.56° C | 40% | 1013.2 hPa | 0 mm | - | 86 W/m² | - |
| 1777577711 | 15.56° C | 43% | 1013.2 hPa | 0 mm | - | 125 W/m² | - |
| 1777577409 | 15.56° C | 40% | 1013.2 hPa | 0 mm | - | 127 W/m² | - |
| 1777577110 | 16.11° C | 41% | 1013.3 hPa | 0 mm | - | 137 W/m² | - |
| 1777576810 | 16.11° C | 38% | 1013.3 hPa | 0 mm | - | 156 W/m² | - |
| 1777576510 | 16.67° C | 39% | 1013.3 hPa | 0 mm | - | 320 W/m² | - |
| 1777576210 | 16.67° C | 40% | 1013.4 hPa | 0 mm | - | 341 W/m² | - |
| 1777575911 | 16.67° C | 40% | 1013.6 hPa | 0 mm | - | 431 W/m² | - |
| 1777575610 | 16.67° C | 39% | 1013.6 hPa | 0 mm | - | 517 W/m² | - |
| 1777575310 | 16.67° C | 39% | 1013.6 hPa | 0 mm | - | 422 W/m² | - |
| 1777575010 | 16.11° C | 42% | 1013.6 hPa | 0 mm | - | 469 W/m² | - |
| 1777574709 | 16.11° C | 40% | 1013.6 hPa | 0 mm | - | 336 W/m² | - |
| 1777574410 | 16.67° C | 41% | 1013.6 hPa | 0 mm | - | 415 W/m² | - |
| 1777574109 | 16.11° C | 38% | 1013.7 hPa | 0 mm | - | 947 W/m² | - |
| 1777573810 | 16.11° C | 40% | 1013.8 hPa | 0 mm | - | 376 W/m² | - |
| 1777573509 | 16.67° C | 39% | 1013.9 hPa | 0 mm | - | 610 W/m² | - |
| 1777573211 | 16.67° C | 39% | 1014.1 hPa | 0 mm | - | 455 W/m² | - |
* Rain latest hour (hover to see other rain measurements)
** Current wind speed in m/s (hover to see current wind gust speed)